Location: Orangeville
(43.9200°N, 80.0943°W)
Time: 18:19:54
(UTC-05:00)

Tiangong - Pass Details

Date: 13 December 2021
Orbit: 383 x 386 km, 41.5° (Epoch: 20 January)

Event Time Altitude Azimuth Distance (km) Brightness Sun altitude
Rises 18:13:41 0° 259° (W) 2,276 6.8 -15.7°
Reaches altitude 10° 18:15:47 10° 255° (WSW) 1,419 5.3 -16.0°
Maximum altitude 18:18:55 54° 177° (S) 478 1.5 -16.6°
Enters shadow 18:19:50 37° 122° (ESE) 616 1.7 -16.7°
